| time (UTC) | temp C | wind direction | speed KPH | gust KPH | rain 1hr cm | rain 24hr cm | rain mn cm | humidity % | barometer mb |
| 20260902034034 | 10 | 0 | 0.0 | 0.0 | 0.00 | 0.00 | 0.00 | 90 | 1007.9 |
| 20260902033531 | 10 | 0 | 0.0 | 0.0 | 0.00 | 0.00 | 0.00 | 89 | 1007.9 |
| 20260902033045 | 10 | 0 | 0.0 | 0.0 | 0.00 | 0.00 | 0.00 | 89 | 1007.8 |
| 20260902032534 | 10 | 0 | 0.0 | 0.0 | 0.00 | 0.00 | 0.00 | 89 | 1007.8 |
| 20260902032030 | 10 | 0 | 0.0 | 3.2 | 0.00 | 0.00 | 0.00 | 89 | 1007.9 |
| 20260902031601 | 10 | 0 | 0.0 | 8.0 | 0.00 | 0.00 | 0.00 | 89 | 1007.8 |
| 20260902031035 | 10 | 169 | 1.6 | 8.0 | 0.00 | 0.00 | 0.00 | 89 | 1007.8 |
| 20260902030537 | 10 | 0 | 0.0 | 3.2 | 0.00 | 0.00 | 0.00 | 89 | 1007.8 |
| 20260902030057 | 10 | 0 | 0.0 | 3.2 | 0.00 | 0.00 | 0.00 | 89 | 1007.8 |
| 20260902025535 | 10 | 0 | 0.0 | 3.2 | 0.00 | 0.00 | 0.00 | 89 | 1007.8 |
| 20260902025034 | 10 | 0 | 0.0 | 3.2 | 0.00 | 0.00 | 0.00 | 89 | 1007.7 |
| 20260902024557 | 10 | 0 | 0.0 | 3.2 | 0.00 | 0.00 | 0.00 | 89 | 1007.9 |
| 20260902024033 | 11 | 0 | 0.0 | 3.2 | 0.00 | 0.00 | 0.00 | 89 | 1007.8 |
| 20260902023536 | 10 | 0 | 0.0 | 3.2 | 0.00 | 0.00 | 0.00 | 89 | 1007.9 |
| 20260902023047 | 11 | 109 | 0.0 | 1.6 | 0.00 | 0.00 | 0.00 | 88 | 1007.8 |
| 20260902022532 | 11 | 0 | 0.0 | 1.6 | 0.00 | 0.00 | 0.00 | 88 | 1007.8 |
| 20260902022033 | 11 | 0 | 0.0 | 3.2 | 0.00 | 0.00 | 0.00 | 87 | 1008.0 |
| 20260902021553 | 11 | 0 | 0.0 | 4.8 | 0.00 | 0.00 | 0.00 | 87 | 1007.9 |
| 20260902021034 | 11 | 82 | 0.0 | 4.8 | 0.00 | 0.00 | 0.00 | 87 | 1007.8 |
| 20260902020533 | 11 | 102 | 3.2 | 4.8 | 0.00 | 0.00 | 0.00 | 87 | 1007.9 |
| 20260902020058 | 11 | 125 | 1.6 | 4.8 | 0.00 | 0.00 | 0.00 | 86 | 1008.0 |
| 20260902015533 | 11 | 134 | 1.6 | 4.8 | 0.00 | 0.00 | 0.00 | 85 | 1007.9 |
| 20260902015036 | 12 | 185 | 1.6 | 8.0 | 0.00 | 0.00 | 0.00 | 85 | 1007.9 |
| 20260902014546 | 12 | 155 | 0.0 | 8.0 | 0.00 | 0.00 | 0.00 | 86 | 1008.0 |
| 20260902014035 | 12 | 209 | 4.8 | 8.0 | 0.00 | 0.00 | 0.00 | 86 | 1008.1 |
| 20260902013533 | 11 | 256 | 4.8 | 6.4 | 0.00 | 0.00 | 0.00 | 87 | 1008.1 |
| 20260902013047 | 11 | 187 | 3.2 | 8.0 | 0.00 | 0.00 | 0.00 | 87 | 1008.2 |
| 20260902012534 | 11 | 0 | 0.0 | 8.0 | 0.00 | 0.00 | 0.00 | 88 | 1008.2 |
| 20260902012033 | 11 | 178 | 4.8 | 9.7 | 0.00 | 0.00 | 0.00 | 88 | 1008.1 |
| 20260902011551 | 11 | 216 | 4.8 | 9.7 | 0.00 | 0.00 | 0.00 | 87 | 1008.0 |
| 20260902011037 | 12 | 207 | 4.8 | 9.7 | 0.00 | 0.00 | 0.00 | 87 | 1008.1 |
| 20260902010530 | 12 | 184 | 4.8 | 9.7 | 0.00 | 0.00 | 0.00 | 88 | 1008.1 |
| 20260902010047 | 12 | 224 | 1.6 | 6.4 | 0.00 | 0.00 | 0.00 | 89 | 1008.3 |
| 20260902005531 | 12 | 217 | 1.6 | 4.8 | 0.00 | 0.00 | 0.00 | 89 | 1008.1 |
| 20260902005031 | 12 | 143 | 0.0 | 4.8 | 0.00 | 0.00 | 0.00 | 90 | 1008.3 |
| 20260902004556 | 12 | 141 | 3.2 | 6.4 | 0.00 | 0.00 | 0.00 | 90 | 1008.2 |
| 20260902004032 | 12 | 206 | 3.2 | 9.7 | 0.00 | 0.00 | 0.00 | 90 | 1008.3 |
| 20260902003530 | 12 | 227 | 6.4 | 9.7 | 0.00 | 0.00 | 0.00 | 90 | 1008.2 |
| 20260902003053 | 12 | 224 | 3.2 | 9.7 | 0.00 | 0.00 | 0.00 | 91 | 1008.3 |
| 20260902002533 | 13 | 206 | 4.8 | 11.3 | 0.00 | 0.00 | 0.00 | 91 | 1008.3 |
| 20260902002030 | 12 | 178 | 4.8 | 11.3 | 0.00 | 0.00 | 0.00 | 92 | 1008.3 |
| 20260902001551 | 13 | 165 | 4.8 | 11.3 | 0.00 | 0.00 | 0.00 | 92 | 1008.3 |
| 20260902001030 | 13 | 184 | 3.2 | 8.0 | 0.00 | 0.00 | 0.00 | 93 | 1008.4 |
| 20260902000530 | 13 | 212 | 3.2 | 8.0 | 0.00 | 0.00 | 0.00 | 93 | 1008.4 |
| 20260902000044 | 12 | 146 | 1.6 | 4.8 | 0.00 | 0.00 | 0.00 | 94 | 1008.4 |
| 20260901235532 | 12 | 0 | 0.0 | 4.8 | 0.00 | 0.00 | 0.00 | 94 | 1008.5 |
| 20260901235035 | 12 | 134 | 1.6 | 4.8 | 0.00 | 0.00 | 0.00 | 94 | 1008.4 |
| 20260901234547 | 12 | 0 | 0.0 | 6.4 | 0.00 | 0.00 | 0.00 | 94 | 1008.3 |
| 20260901234033 | 12 | 86 | 1.6 | 6.4 | 0.00 | 0.00 | 0.00 | 94 | 1008.3 |
| 20260901233531 | 12 | 105 | 1.6 | 6.4 | 0.00 | 0.00 | 0.00 | 94 | 1008.4 |
| 20260901233049 | 12 | 0 | 0.0 | 1.6 | 0.00 | 0.00 | 0.00 | 94 | 1008.2 |
| 20260901232531 | 12 | 0 | 0.0 | 1.6 | 0.00 | 0.00 | 0.00 | 94 | 1008.3 |
| 20260901232034 | 12 | 0 | 0.0 | 1.6 | 0.00 | 0.00 | 0.00 | 94 | 1008.5 |
| 20260901231550 | 12 | 110 | 0.0 | 1.6 | 0.00 | 0.00 | 0.00 | 94 | 1008.4 |
| 20260901231030 | 12 | 0 | 0.0 | 0.0 | 0.00 | 0.00 | 0.00 | 94 | 1008.4 |
| 20260901230534 | 12 | 0 | 0.0 | 3.2 | 0.00 | 0.00 | 0.00 | 94 | 1008.3 |
| 20260901230107 | 12 | 0 | 0.0 | 3.2 | 0.00 | 0.00 | 0.00 | 94 | 1008.1 |
| 20260901225533 | 12 | 109 | 0.0 | 0.0 | 0.00 | 0.00 | 0.00 | 94 | 1008.1 |
| 20260901225031 | 12 | 0 | 0.0 | 1.6 | 0.00 | 0.00 | 0.00 | 94 | 1008.1 |
| 20260901224550 | 12 | 0 | 0.0 | 4.8 | 0.00 | 0.00 | 0.00 | 94 | 1008.1 |
| 20260901224031 | 12 | 0 | 0.0 | 4.8 | 0.00 | 0.00 | 0.00 | 94 | 1008.1 |
| 20260901223534 | 12 | 98 | 1.6 | 4.8 | 0.00 | 0.00 | 0.00 | 93 | 1008.2 |
| 20260901223055 | 12 | 0 | 1.6 | 3.2 | 0.00 | 0.00 | 0.00 | 93 | 1008.2 |
| 20260901222536 | 12 | 0 | 0.0 | 0.0 | 0.00 | 0.00 | 0.00 | 93 | 1008.2 |
| 20260901222036 | 12 | 0 | 0.0 | 0.0 | 0.00 | 0.00 | 0.00 | 93 | 1008.2 |
| 20260901221607 | 12 | 0 | 0.0 | 0.0 | 0.00 | 0.00 | 0.00 | 93 | 1008.1 |
| 20260901221033 | 12 | 0 | 0.0 | 1.6 | 0.00 | 0.00 | 0.00 | 93 | 1008.2 |
| 20260901220532 | 12 | 0 | 0.0 | 3.2 | 0.00 | 0.00 | 0.00 | 93 | 1008.2 |
| 20260901220048 | 12 | 0 | 0.0 | 3.2 | 0.00 | 0.00 | 0.00 | 93 | 1008.2 |
| 20260901215535 | 12 | 104 | 1.6 | 3.2 | 0.00 | 0.00 | 0.00 | 93 | 1008.1 |
| 20260901215031 | 12 | 110 | 1.6 | 3.2 | 0.00 | 0.00 | 0.00 | 93 | 1008.1 |
| 20260901214546 | 12 | 112 | 1.6 | 3.2 | 0.00 | 0.00 | 0.00 | 93 | 1008.2 |
| 20260901214033 | 12 | 106 | 0.0 | 4.8 | 0.00 | 0.00 | 0.00 | 93 | 1008.1 |
| 20260901213537 | 13 | 140 | 0.0 | 4.8 | 0.00 | 0.00 | 0.00 | 93 | 1008.1 |
| 20260901213056 | 13 | 143 | 0.0 | 3.2 | 0.00 | 0.00 | 0.00 | 93 | 1008.0 |
| 20260901212533 | 13 | 117 | 0.0 | 3.2 | 0.00 | 0.00 | 0.00 | 93 | 1008.0 |
| 20260901212032 | 13 | 160 | 0.0 | 3.2 | 0.00 | 0.00 | 0.00 | 93 | 1008.1 |
| 20260901211551 | 12 | 0 | 0.0 | 3.2 | 0.00 | 0.00 | 0.00 | 93 | 1008.1 |
| 20260901211032 | 12 | 138 | 0.0 | 3.2 | 0.00 | 0.00 | 0.00 | 93 | 1008.2 |
| 20260901210534 | 13 | 141 | 0.0 | 6.4 | 0.00 | 0.00 | 0.00 | 93 | 1008.1 |
| 20260901210047 | 13 | 0 | 0.0 | 6.4 | 0.00 | 0.00 | 0.00 | 93 | 1008.2 |
| 20260901205532 | 12 | 123 | 3.2 | 4.8 | 0.00 | 0.00 | 0.00 | 92 | 1008.3 |
| 20260901205034 | 12 | 111 | 3.2 | 4.8 | 0.00 | 0.00 | 0.00 | 92 | 1008.3 |
| 20260901204544 | 13 | 124 | 3.2 | 4.8 | 0.00 | 0.00 | 0.00 | 92 | 1008.3 |
| 20260901204030 | 13 | 116 | 1.6 | 4.8 | 0.00 | 0.00 | 0.00 | 92 | 1008.5 |
| 20260901203533 | 13 | 105 | 1.6 | 4.8 | 0.00 | 0.00 | 0.00 | 92 | 1008.4 |
| 20260901203056 | 13 | 0 | 0.0 | 0.0 | 0.00 | 0.00 | 0.00 | 92 | 1008.5 |
| 20260901202533 | 13 | 0 | 0.0 | 0.0 | 0.00 | 0.00 | 0.00 | 91 | 1008.4 |
| 20260901202033 | 13 | 0 | 0.0 | 0.0 | 0.00 | 0.00 | 0.00 | 91 | 1008.6 |
| 20260901201550 | 13 | 0 | 0.0 | 0.0 | 0.00 | 0.00 | 0.00 | 91 | 1008.4 |
| 20260901201037 | 13 | 0 | 0.0 | 0.0 | 0.00 | 0.00 | 0.00 | 91 | 1008.4 |
| 20260901200530 | 13 | 0 | 0.0 | 0.0 | 0.00 | 0.00 | 0.00 | 91 | 1008.4 |
| 20260901200045 | 13 | 0 | 0.0 | 0.0 | 0.00 | 0.00 | 0.00 | 91 | 1008.5 |
| 20260901195530 | 13 | 0 | 0.0 | 0.0 | 0.00 | 0.00 | 0.00 | 91 | 1008.5 |
| 20260901195031 | 13 | 0 | 0.0 | 1.6 | 0.00 | 0.00 | 0.00 | 90 | 1008.5 |
| 20260901194544 | 13 | 0 | 0.0 | 3.2 | 0.00 | 0.00 | 0.00 | 90 | 1008.3 |
| 20260901194034 | 13 | 0 | 0.0 | 3.2 | 0.00 | 0.00 | 0.00 | 90 | 1008.6 |
| 20260901193533 | 13 | 168 | 0.0 | 1.6 | 0.00 | 0.00 | 0.00 | 90 | 1008.5 |
| 20260901193047 | 13 | 0 | 0.0 | 3.2 | 0.00 | 0.00 | 0.00 | 90 | 1008.6 |
| 20260901192537 | 13 | 0 | 0.0 | 4.8 | 0.00 | 0.00 | 0.00 | 90 | 1008.5 |
| 20260901192030 | 13 | 174 | 0.0 | 4.8 | 0.00 | 0.00 | 0.00 | 90 | 1008.4 |
| 20260901191545 | 13 | 168 | 1.6 | 4.8 | 0.00 | 0.00 | 0.00 | 89 | 1008.5 |
| 20260901191033 | 13 | 221 | 1.6 | 3.2 | 0.00 | 0.00 | 0.00 | 89 | 1008.5 |
| 20260901190533 | 14 | 210 | 0.0 | 3.2 | 0.00 | 0.00 | 0.00 | 89 | 1008.5 |
| 20260901190049 | 14 | 0 | 0.0 | 3.2 | 0.00 | 0.00 | 0.00 | 88 | 1008.6 |
| 20260901185634 | 14 | 0 | 0.0 | 6.4 | 0.00 | 0.00 | 0.00 | 88 | 1008.5 |
| 20260901185033 | 15 | 0 | 0.0 | 6.4 | 0.00 | 0.00 | 0.00 | 88 | 1008.6 |
| 20260901184545 | 15 | 127 | 3.2 | 6.4 | 0.00 | 0.00 | 0.00 | 88 | 1008.5 |
| 20260901184033 | 15 | 141 | 1.6 | 6.4 | 0.00 | 0.00 | 0.00 | 88 | 1008.5 |
| 20260901183533 | 15 | 206 | 3.2 | 9.7 | 0.00 | 0.00 | 0.00 | 88 | 1008.5 |
| 20260901183109 | 15 | 195 | 1.6 | 9.7 | 0.00 | 0.00 | 0.00 | 87 | 1008.5 |
| 20260901182533 | 15 | 153 | 3.2 | 8.0 | 0.00 | 0.00 | 0.00 | 87 | 1008.6 |
| 20260901182034 | 15 | 184 | 1.6 | 6.4 | 0.00 | 0.00 | 0.00 | 87 | 1008.6 |
| 20260901181552 | 15 | 0 | 1.6 | 6.4 | 0.00 | 0.00 | 0.00 | 86 | 1008.5 |
| 20260901181034 | 15 | 151 | 1.6 | 6.4 | 0.00 | 0.00 | 0.00 | 86 | 1008.6 |
| 20260901180533 | 15 | 158 | 3.2 | 6.4 | 0.00 | 0.00 | 0.00 | 86 | 1008.7 |
| 20260901180050 | 16 | 148 | 3.2 | 6.4 | 0.00 | 0.00 | 0.00 | 85 | 1008.6 |
| 20260901175533 | 16 | 128 | 1.6 | 11.3 | 0.00 | 0.00 | 0.00 | 85 | 1008.6 |
| 20260901175032 | 16 | 0 | 4.8 | 11.3 | 0.00 | 0.00 | 0.00 | 84 | 1008.5 |
| 20260901174547 | 16 | 110 | 3.2 | 11.3 | 0.00 | 0.00 | 0.00 | 83 | 1008.5 |
| 20260901174033 | 16 | 156 | 3.2 | 9.7 | 0.00 | 0.00 | 0.00 | 83 | 1008.7 |
| 20260901173532 | 16 | 207 | 1.6 | 9.7 | 0.00 | 0.00 | 0.00 | 82 | 1008.7 |
| 20260901173124 | 17 | 163 | 4.8 | 12.9 | 0.00 | 0.00 | 0.00 | 81 | 1008.7 |
| 20260901172533 | 17 | 205 | 4.8 | 14.5 | 0.00 | 0.00 | 0.00 | 80 | 1008.7 |
| 20260901172033 | 17 | 219 | 4.8 | 14.5 | 0.00 | 0.00 | 0.00 | 79 | 1008.7 |
| 20260901171556 | 17 | 221 | 6.4 | 20.9 | 0.00 | 0.00 | 0.00 | 79 | 1008.7 |
| 20260901171034 | 17 | 212 | 11.3 | 20.9 | 0.00 | 0.00 | 0.00 | 78 | 1008.8 |
| 20260901170533 | 17 | 179 | 11.3 | 20.9 | 0.00 | 0.00 | 0.00 | 78 | 1008.8 |
| 20260901165532 | 17 | 115 | 4.8 | 11.3 | 0.00 | 0.00 | 0.00 | 79 | 1008.7 |
| 20260901165032 | 17 | 207 | 6.4 | 11.3 | 0.00 | 0.00 | 0.00 | 80 | 1008.7 |
| 20260901164557 | 17 | 148 | 3.2 | 9.7 | 0.00 | 0.00 | 0.00 | 80 | 1008.7 |
| 20260901164032 | 17 | 108 | 3.2 | 11.3 | 0.00 | 0.00 | 0.00 | 80 | 1008.8 |
| 20260901163532 | 17 | 179 | 6.4 | 16.1 | 0.00 | 0.00 | 0.00 | 79 | 1008.8 |
| 20260901163108 | 17 | 160 | 6.4 | 16.1 | 0.00 | 0.00 | 0.00 | 79 | 1008.9 |
| 20260901162532 | 17 | 140 | 6.4 | 12.9 | 0.00 | 0.00 | 0.00 | 79 | 1008.9 |
| 20260901162035 | 17 | 183 | 4.8 | 11.3 | 0.00 | 0.00 | 0.00 | 78 | 1008.9 |
| 20260901161557 | 17 | 205 | 1.6 | 11.3 | 0.00 | 0.00 | 0.00 | 78 | 1008.8 |
| 20260901161031 | 17 | 213 | 3.2 | 11.3 | 0.00 | 0.00 | 0.00 | 78 | 1008.8 |
| 20260901160532 | 17 | 181 | 4.8 | 14.5 | 0.00 | 0.00 | 0.00 | 78 | 1008.7 |
| 20260901160056 | 17 | 158 | 4.8 | 14.5 | 0.00 | 0.00 | 0.00 | 78 | 1008.7 |
| 20260901155532 | 17 | 191 | 6.4 | 14.5 | 0.00 | 0.00 | 0.00 | 78 | 1008.6 |
| 20260901155032 | 18 | 171 | 3.2 | 9.7 | 0.00 | 0.00 | 0.00 | 77 | 1008.7 |
| 20260901154548 | 18 | 190 | 3.2 | 9.7 | 0.00 | 0.00 | 0.00 | 77 | 1008.7 |
| 20260901154032 | 18 | 65 | 1.6 | 9.7 | 0.00 | 0.00 | 0.00 | 76 | 1008.8 |
| 20260901153533 | 18 | 153 | 3.2 | 8.0 | 0.00 | 0.00 | 0.00 | 76 | 1008.8 |
| 20260901153046 | 18 | 141 | 3.2 | 11.3 | 0.00 | 0.00 | 0.00 | 75 | 1008.9 |
| 20260901152538 | 18 | 191 | 3.2 | 11.3 | 0.00 | 0.00 | 0.00 | 74 | 1008.9 |
| 20260901152033 | 18 | 184 | 4.8 | 12.9 | 0.00 | 0.00 | 0.00 | 73 | 1008.9 |
| 20260901151558 | 19 | 102 | 4.8 | 19.3 | 0.00 | 0.00 | 0.00 | 73 | 1008.9 |
| 20260901151031 | 19 | 185 | 4.8 | 19.3 | 0.00 | 0.00 | 0.00 | 72 | 1008.9 |
| 20260901150532 | 19 | 155 | 4.8 | 12.9 | 0.00 | 0.00 | 0.00 | 74 | 1008.9 |
| 20260901150055 | 19 | 98 | 4.8 | 12.9 | 0.00 | 0.00 | 0.00 | 73 | 1008.8 |
| 20260901145533 | 19 | 131 | 3.2 | 11.3 | 0.00 | 0.00 | 0.00 | 72 | 1008.9 |
| 20260901145031 | 20 | 135 | 6.4 | 11.3 | 0.00 | 0.00 | 0.00 | 70 | 1009.0 |
| 20260901144547 | 20 | 134 | 4.8 | 11.3 | 0.00 | 0.00 | 0.00 | 72 | 1009.0 |
| 20260901144034 | 20 | 181 | 4.8 | 9.7 | 0.00 | 0.00 | 0.00 | 72 | 1009.0 |
| 20260901143532 | 20 | 146 | 4.8 | 8.0 | 0.00 | 0.00 | 0.00 | 71 | 1008.9 |
| 20260901143049 | 20 | 178 | 3.2 | 8.0 | 0.00 | 0.00 | 0.00 | 72 | 1008.9 |
| 20260901142533 | 20 | 147 | 4.8 | 9.7 | 0.00 | 0.00 | 0.00 | 72 | 1009.0 |
| 20260901142033 | 20 | 95 | 4.8 | 9.7 | 0.00 | 0.00 | 0.00 | 70 | 1009.1 |
| 20260901141552 | 20 | 141 | 3.2 | 6.4 | 0.00 | 0.00 | 0.00 | 71 | 1009.1 |
| 20260901141030 | 19 | 90 | 3.2 | 9.7 | 0.00 | 0.00 | 0.00 | 73 | 1009.1 |
| 20260901140532 | 19 | 99 | 4.8 | 9.7 | 0.00 | 0.00 | 0.00 | 71 | 1009.2 |
| 20260901140047 | 19 | 94 | 6.4 | 9.7 | 0.00 | 0.00 | 0.00 | 70 | 1009.3 |
| 20260901135532 | 19 | 143 | 3.2 | 8.0 | 0.00 | 0.00 | 0.00 | 72 | 1009.3 |
| 20260901135033 | 18 | 109 | 3.2 | 8.0 | 0.00 | 0.00 | 0.00 | 73 | 1009.3 |
| 20260901134547 | 19 | 0 | 3.2 | 8.0 | 0.00 | 0.00 | 0.00 | 73 | 1009.5 |
| 20260901134031 | 19 | 124 | 4.8 | 8.0 | 0.00 | 0.00 | 0.00 | 73 | 1009.4 |
| 20260901133536 | 19 | 100 | 3.2 | 9.7 | 0.00 | 0.00 | 0.00 | 73 | 1009.4 |
| 20260901133057 | 18 | 156 | 3.2 | 9.7 | 0.00 | 0.00 | 0.00 | 74 | 1009.5 |
| 20260901132531 | 18 | 157 | 3.2 | 9.7 | 0.00 | 0.00 | 0.00 | 73 | 1009.4 |
| 20260901132031 | 18 | 113 | 1.6 | 4.8 | 0.00 | 0.00 | 0.00 | 73 | 1009.5 |
| 20260901131548 | 18 | 158 | 1.6 | 4.8 | 0.00 | 0.00 | 0.00 | 72 | 1009.6 |
| 20260901131035 | 19 | 148 | 1.6 | 6.4 | 0.00 | 0.00 | 0.00 | 71 | 1009.7 |
| 20260901130532 | 20 | 181 | 3.2 | 6.4 | 0.00 | 0.00 | 0.00 | 71 | 1009.7 |
| 20260901130048 | 20 | 233 | 1.6 | 6.4 | 0.00 | 0.00 | 0.00 | 70 | 1009.8 |
| 20260901125531 | 20 | 0 | 3.2 | 11.3 | 0.00 | 0.00 | 0.00 | 69 | 1009.8 |
| 20260901125032 | 19 | 137 | 3.2 | 11.3 | 0.00 | 0.00 | 0.00 | 72 | 1009.8 |
| 20260901124547 | 19 | 119 | 3.2 | 9.7 | 0.00 | 0.00 | 0.00 | 73 | 1009.8 |
| 20260901124033 | 19 | 173 | 4.8 | 9.7 | 0.00 | 0.00 | 0.00 | 72 | 1009.8 |
| 20260901123531 | 19 | 0 | 3.2 | 9.7 | 0.00 | 0.00 | 0.00 | 71 | 1009.9 |
| 20260901123053 | 19 | 107 | 4.8 | 9.7 | 0.00 | 0.00 | 0.00 | 73 | 1009.8 |
| 20260901122531 | 18 | 163 | 0.0 | 8.0 | 0.00 | 0.00 | 0.00 | 73 | 1009.9 |
| 20260901122031 | 18 | 199 | 3.2 | 8.0 | 0.00 | 0.00 | 0.00 | 74 | 1009.9 |
| 20260901121553 | 18 | 98 | 3.2 | 6.4 | 0.00 | 0.00 | 0.00 | 73 | 1009.9 |
| 20260901121035 | 18 | 292 | 1.6 | 6.4 | 0.00 | 0.00 | 0.00 | 74 | 1009.9 |
| 20260901120531 | 18 | 201 | 3.2 | 8.0 | 0.00 | 0.00 | 0.00 | 75 | 1009.9 |
| 20260901120059 | 17 | 212 | 1.6 | 8.0 | 0.00 | 0.00 | 0.00 | 78 | 1009.9 |
| 20260901115531 | 17 | 134 | 3.2 | 6.4 | 0.00 | 0.00 | 0.00 | 77 | 1010.0 |
| 20260901115035 | 17 | 139 | 3.2 | 6.4 | 0.00 | 0.00 | 0.00 | 77 | 1009.9 |
| 20260901114544 | 16 | 357 | 3.2 | 6.4 | 0.00 | 0.00 | 0.00 | 80 | 1009.9 |
| 20260901114031 | 16 | 115 | 1.6 | 8.0 | 0.00 | 0.00 | 0.00 | 80 | 1010.1 |
| 20260901113533 | 16 | 214 | 3.2 | 8.0 | 0.00 | 0.00 | 0.00 | 79 | 1010.0 |
| 20260901113051 | 16 | 233 | 3.2 | 8.0 | 0.00 | 0.00 | 0.00 | 79 | 1010.0 |
| 20260901112533 | 16 | 219 | 1.6 | 9.7 | 0.00 | 0.00 | 0.00 | 80 | 1010.0 |
| 20260901112036 | 16 | 208 | 4.8 | 9.7 | 0.00 | 0.00 | 0.00 | 81 | 1010.0 |
| 20260901111554 | 16 | 0 | 1.6 | 6.4 | 0.00 | 0.00 | 0.00 | 79 | 1010.0 |
| 20260901111031 | 17 | 101 | 3.2 | 6.4 | 0.00 | 0.00 | 0.00 | 80 | 1010.1 |
| 20260901110531 | 16 | 0 | 3.2 | 6.4 | 0.00 | 0.00 | 0.00 | 80 | 1010.1 |
| 20260901110048 | 16 | 136 | 3.2 | 8.0 | 0.00 | 0.00 | 0.00 | 81 | 1010.2 |
| 20260901105532 | 16 | 0 | 0.0 | 8.0 | 0.00 | 0.00 | 0.00 | 81 | 1010.2 |
| 20260901105035 | 16 | 233 | 3.2 | 8.0 | 0.00 | 0.00 | 0.00 | 82 | 1010.3 |
| 20260901104553 | 16 | 113 | 1.6 | 4.8 | 0.00 | 0.00 | 0.00 | 82 | 1010.2 |
| 20260901104036 | 16 | 148 | 0.0 | 4.8 | 0.00 | 0.00 | 0.00 | 83 | 1010.1 |
| 20260901103533 | 16 | 124 | 1.6 | 6.4 | 0.00 | 0.00 | 0.00 | 83 | 1010.0 |
| 20260901103055 | 15 | 0 | 1.6 | 8.0 | 0.00 | 0.00 | 0.00 | 82 | 1010.1 |
| 20260901102532 | 16 | 228 | 3.2 | 8.0 | 0.00 | 0.00 | 0.00 | 82 | 1010.0 |
| 20260901102032 | 16 | 223 | 3.2 | 8.0 | 0.00 | 0.00 | 0.00 | 82 | 1009.9 |
| 20260901101606 | 16 | 134 | 1.6 | 8.0 | 0.00 | 0.00 | 0.00 | 83 | 1010.0 |
| 20260901101035 | 16 | 122 | 4.8 | 9.7 | 0.00 | 0.00 | 0.00 | 83 | 1010.0 |
| 20260901100531 | 15 | 220 | 3.2 | 9.7 | 0.00 | 0.00 | 0.00 | 83 | 1009.9 |
| 20260901100105 | 15 | 221 | 3.2 | 9.7 | 0.00 | 0.00 | 0.00 | 84 | 1009.8 |
| 20260901095533 | 15 | 327 | 3.2 | 6.4 | 0.00 | 0.00 | 0.00 | 85 | 1009.9 |
| 20260901095031 | 15 | 320 | 3.2 | 6.4 | 0.00 | 0.00 | 0.00 | 85 | 1009.9 |
| 20260901094549 | 15 | 318 | 0.0 | 4.8 | 0.00 | 0.00 | 0.00 | 86 | 1010.0 |
| 20260901094032 | 15 | 0 | 1.6 | 4.8 | 0.00 | 0.00 | 0.00 | 86 | 1010.0 |
| 20260901093531 | 15 | 239 | 3.2 | 4.8 | 0.00 | 0.00 | 0.00 | 86 | 1010.0 |
| 20260901093049 | 15 | 211 | 0.0 | 8.0 | 0.00 | 0.00 | 0.00 | 88 | 1010.0 |
| 20260901092536 | 14 | 232 | 3.2 | 8.0 | 0.00 | 0.00 | 0.00 | 88 | 1009.9 |
| 20260901092036 | 14 | 222 | 4.8 | 6.4 | 0.00 | 0.00 | 0.00 | 90 | 1010.0 |
| 20260901091547 | 14 | 0 | 1.6 | 4.8 | 0.00 | 0.00 | 0.00 | 91 | 1010.0 |
| 20260901091034 | 14 | 345 | 1.6 | 4.8 | 0.00 | 0.00 | 0.00 | 93 | 1009.9 |
| 20260901090535 | 14 | 314 | 1.6 | 4.8 | 0.00 | 0.00 | 0.00 | 94 | 1009.9 |
| 20260901090101 | 14 | 311 | 1.6 | 4.8 | 0.00 | 0.00 | 0.00 | 95 | 1009.9 |
| 20260901085532 | 13 | 0 | 0.0 | 4.8 | 0.00 | 0.00 | 0.00 | 95 | 1009.9 |
| 20260901085033 | 13 | 0 | 0.0 | 4.8 | 0.00 | 0.00 | 0.00 | 95 | 1009.9 |
| 20260901084559 | 13 | 353 | 1.6 | 4.8 | 0.00 | 0.00 | 0.00 | 96 | 1009.8 |
| 20260901084035 | 13 | 323 | 1.6 | 4.8 | 0.00 | 0.00 | 0.00 | 96 | 1009.9 |
| 20260901083537 | 13 | 318 | 1.6 | 3.2 | 0.00 | 0.00 | 0.00 | 96 | 1009.9 |
| 20260901083058 | 13 | 325 | 0.0 | 3.2 | 0.00 | 0.00 | 0.00 | 96 | 1009.8 |
| 20260901082534 | 13 | 0 | 0.0 | 4.8 | 0.00 | 0.00 | 0.00 | 96 | 1009.9 |
| 20260901082036 | 13 | 345 | 1.6 | 4.8 | 0.00 | 0.00 | 0.00 | 96 | 1009.8 |
| 20260901081556 | 13 | 307 | 1.6 | 4.8 | 0.00 | 0.00 | 0.00 | 96 | 1010.0 |
| 20260901081037 | 13 | 319 | 1.6 | 4.8 | 0.00 | 0.00 | 0.00 | 96 | 1009.9 |
| 20260901080531 | 13 | 296 | 3.2 | 4.8 | 0.00 | 0.00 | 0.00 | 96 | 1009.8 |
| 20260901080108 | 12 | 0 | 0.0 | 0.0 | 0.00 | 0.00 | 0.00 | 96 | 1009.9 |
| 20260901075535 | 12 | 0 | 0.0 | 0.0 | 0.00 | 0.00 | 0.00 | 96 | 1009.8 |
| 20260901075035 | 12 | 0 | 0.0 | 0.0 | 0.00 | 0.00 | 0.00 | 96 | 1009.8 |
| 20260901074600 | 12 | 0 | 0.0 | 0.0 | 0.00 | 0.00 | 0.00 | 96 | 1009.8 |
| 20260901074039 | 12 | 0 | 0.0 | 0.0 | 0.00 | 0.00 | 0.00 | 96 | 1009.9 |
| 20260901073535 | 12 | 0 | 0.0 | 0.0 | 0.00 | 0.00 | 0.00 | 96 | 1009.8 |
| 20260901073051 | 12 | 0 | 0.0 | 0.0 | 0.00 | 0.00 | 0.00 | 96 | 1009.7 |
| 20260901072535 | 12 | 0 | 0.0 | 0.0 | 0.00 | 0.00 | 0.00 | 96 | 1009.8 |
| 20260901072032 | 12 | 0 | 0.0 | 3.2 | 0.00 | 0.00 | 0.00 | 96 | 1009.7 |
| 20260901071546 | 12 | 0 | 0.0 | 4.8 | 0.00 | 0.00 | 0.00 | 96 | 1009.7 |
| 20260901071031 | 11 | 304 | 1.6 | 4.8 | 0.00 | 0.00 | 0.00 | 96 | 1009.7 |
| 20260901070538 | 11 | 0 | 0.0 | 4.8 | 0.00 | 0.00 | 0.00 | 96 | 1009.7 |
| 20260901070052 | 11 | 0 | 0.0 | 6.4 | 0.00 | 0.00 | 0.00 | 96 | 1009.5 |
| 20260901065535 | 11 | 26 | 1.6 | 9.7 | 0.00 | 0.00 | 0.00 | 96 | 1009.5 |
| 20260901065035 | 11 | 356 | 4.8 | 11.3 | 0.00 | 0.00 | 0.00 | 96 | 1009.5 |
| 20260901064549 | 11 | 354 | 6.4 | 11.3 | 0.00 | 0.00 | 0.00 | 96 | 1009.5 |
| 20260901064035 | 11 | 343 | 6.4 | 11.3 | 0.00 | 0.00 | 0.00 | 96 | 1009.5 |
| 20260901063534 | 11 | 347 | 6.4 | 11.3 | 0.00 | 0.00 | 0.00 | 96 | 1009.5 |
| 20260901063053 | 11 | 345 | 6.4 | 11.3 | 0.00 | 0.00 | 0.00 | 96 | 1009.5 |
| 20260901062531 | 11 | 336 | 4.8 | 9.7 | 0.00 | 0.00 | 0.00 | 96 | 1009.4 |
| 20260901062032 | 11 | 356 | 6.4 | 9.7 | 0.00 | 0.00 | 0.00 | 96 | 1009.4 |
| 20260901061548 | 11 | 340 | 6.4 | 11.3 | 0.00 | 0.00 | 0.00 | 96 | 1009.5 |
| 20260901061031 | 11 | 336 | 4.8 | 11.3 | 0.00 | 0.00 | 0.00 | 96 | 1009.4 |
| 20260901060532 | 11 | 6 | 6.4 | 11.3 | 0.00 | 0.00 | 0.00 | 96 | 1009.4 |
| 20260901060051 | 11 | 349 | 3.2 | 9.7 | 0.00 | 0.00 | 0.00 | 96 | 1009.3 |
| 20260901055531 | 11 | 341 | 4.8 | 9.7 | 0.00 | 0.00 | 0.00 | 96 | 1009.2 |
| 20260901055031 | 11 | 360 | 4.8 | 9.7 | 0.00 | 0.00 | 0.00 | 96 | 1009.2 |
| 20260901054546 | 11 | 359 | 6.4 | 9.7 | 0.00 | 0.00 | 0.00 | 96 | 1009.2 |
| 20260901054032 | 11 | 340 | 3.2 | 6.4 | 0.00 | 0.00 | 0.00 | 96 | 1009.2 |
| 20260901053534 | 11 | 345 | 4.8 | 6.4 | 0.00 | 0.00 | 0.00 | 96 | 1009.2 |
| 20260901053100 | 11 | 351 | 0.0 | 4.8 | 0.00 | 0.00 | 0.00 | 96 | 1009.1 |
| 20260901052533 | 10 | 313 | 0.0 | 4.8 | 0.00 | 0.00 | 0.00 | 96 | 1009.0 |
| 20260901052031 | 10 | 0 | 0.0 | 4.8 | 0.00 | 0.00 | 0.00 | 96 | 1009.0 |
| 20260901051551 | 10 | 352 | 0.0 | 3.2 | 0.00 | 0.00 | 0.00 | 96 | 1009.1 |
| 20260901051031 | 10 | 113 | 0.0 | 1.6 | 0.00 | 0.00 | 0.00 | 96 | 1008.9 |
| 20260901050531 | 10 | 0 | 0.0 | 3.2 | 0.00 | 0.00 | 0.00 | 96 | 1009.0 |
| 20260901050057 | 10 | 356 | 0.0 | 3.2 | 0.00 | 0.00 | 0.00 | 96 | 1009.0 |
| 20260901045531 | 10 | 359 | 0.0 | 3.2 | 0.00 | 0.00 | 0.00 | 96 | 1008.9 |
| 20260901045030 | 10 | 335 | 0.0 | 1.6 | 0.00 | 0.00 | 0.00 | 96 | 1009.0 |
| 20260901044552 | 10 | 0 | 0.0 | 1.6 | 0.00 | 0.00 | 0.00 | 96 | 1008.8 |
| 20260901044031 | 10 | 0 | 0.0 | 1.6 | 0.00 | 0.00 | 0.00 | 96 | 1008.8 |
| 20260901043532 | 10 | 0 | 0.0 | 3.2 | 0.00 | 0.00 | 0.00 | 96 | 1008.7 |
| 20260901043052 | 10 | 0 | 0.0 | 3.2 | 0.00 | 0.00 | 0.00 | 96 | 1008.6 |
| 20260901042532 | 10 | 0 | 0.0 | 4.8 | 0.00 | 0.00 | 0.00 | 96 | 1008.7 |
| 20260901042037 | 10 | 16 | 1.6 | 8.0 | 0.00 | 0.00 | 0.00 | 96 | 1008.6 |
| 20260901041613 | 10 | 79 | 1.6 | 8.0 | 0.00 | 0.00 | 0.00 | 96 | 1008.6 |
| 20260901041031 | 10 | 348 | 4.8 | 8.0 | 0.00 | 0.00 | 0.00 | 96 | 1008.6 |
| 20260901040535 | 9 | 17 | 0.0 | 4.8 | 0.00 | 0.00 | 0.00 | 96 | 1008.6 |
| 20260901040136 | 9 | 0 | 0.0 | 0.0 | 0.00 | 0.00 | 0.00 | 96 | 1008.6 |
| 20260901035536 | 9 | 0 | 0.0 | 0.0 | 0.00 | 0.00 | 0.00 | 96 | 1008.7 |
| 20260901035032 | 9 | 0 | 0.0 | 0.0 | 0.00 | 0.00 | 0.00 | 96 | 1008.7 |
| 20260901034550 | 9 | 0 | 0.0 | 0.0 | 0.00 | 0.00 | 0.00 | 96 | 1008.6 |